Content
SEND FEEDBACK

Daily
Averages
Monthly
Summary
Philippines

OLONGAPO, PHILIPPINES


Home > Asia > Philippines
Elevation: 55 feet     Latitude: 14 48N     Longitude: 120 16E

WEATHER
 
SELECT A DAY
Number of Records: 134,765;   Date Range: 7/31/96 - 7/7/14
 
SHARE

PRINT THIS DATA

[ ← Previous Day ]
WEATHER ALMANAC - AUGUST 14, 2013
[ Next Day → ]
[ °C ]   °F
Weather ElementAverageHighLow
Temperature84.2 °F89.6 °F (1:00 pm)78.8 °F (5:00 am)
Dewpoint75.6 °F78.8 °F (10:00 am)73 °F (2:00 pm)
Humidity74.4 %89 % (5:00 am)53 % (2:00 pm)
Barometer29.80 in29.87 in (11:00 pm)29.74 in (4:00 pm)
Wind Speed6.1 mph11.5 mph (1:00 pm)
Weather ElementAverage
Visibility7 mi
Wind DirectionSSE (153.8 °)

Weather ElementTotal
Precipitation---
Cooling Degree Days19.2 (Base 65)
Growing Degree Days34.2 (Base 50)
Averaged from 25 records on August 14, 2013
WEATHER CONDITIONS BREAKOUT
WIND DIRECTION BREAKOUT
WEATHER BY HOUR - AUGUST 14, 2013
[ °C ]   °F
Local TimeTemperatureDewpointHumidityBarometerVisibilityWind DirectionWind SpeedGust SpeedPrecipitationEventsConditions
5:00 AM78.8 °F75.2 °F89 %29.77 in6.2 miSouth (190°)6.9 mphOvercast
6:00 AM80.6 °F75.2 °F84 %29.77 in6.2 miSouth (190°)6.9 mphMostly Cloudy
7:00 AM82.4 °F75.2 °F79 %29.77 in6.2 miSouth (190°)9.2 mphMostly Cloudy
8:00 AM83.0 °F76.0 °F73 %29.81 in9.0 miSSW (210°)8.9 mphHaze
8:00 AM82.4 °F75.2 °F79 %29.80 in6.2 miSSW (210°)8.1 mphMostly Cloudy
9:00 AM80.6 °F77.0 °F89 %29.83 in6.2 miVariable2.3 mphMostly Cloudy
10:00 AM82.4 °F78.8 °F89 %29.83 in6.2 miNE (50°)4.6 mphMostly Cloudy
11:00 AM85.0 °F76.0 °F67 %29.83 in9.0 miSSW (210°)8.9 mphRainLight Rain Showers
11:00 AM86.0 °F75.2 °F70 %29.83 in6.2 miSSW (210°)8.1 mphMostly Cloudy
12:00 PM87.8 °F77.0 °F70 %29.80 in6.2 miSSW (200°)6.9 mphMostly Cloudy
1:00 PM89.6 °F77.0 °F66 %29.77 in6.2 miSW (220°)11.5 mphMostly Cloudy
2:00 PM87.8 °F73.4 °F62 %29.80 in6.2 miSSW (210°)11.5 mphMostly Cloudy
2:00 PM88.0 °F73.0 °F53 %29.78 in9.0 miSSW (210°)11.2 mphHaze
3:00 PM87.8 °F75.2 °F66 %29.77 in6.2 miSW (220°)8.1 mphMostly Cloudy
4:00 PM87.8 °F75.2 °F66 %29.74 in6.2 miSSW (210°)9.2 mphMostly Cloudy
5:00 PM88.0 °F74.0 °F54 %29.77 in11.0 miSW (220°)6.7 mphHaze
5:00 PM87.8 °F73.4 °F62 %29.77 in6.2 miSW (220°)6.9 mphMostly Cloudy
6:00 PM86.0 °F75.2 °F70 %29.77 in6.2 miSW (220°)5.8 mphMostly Cloudy
7:00 PM82.4 °F75.2 °F79 %29.80 in6.2 miWSW (240°)6.9 mphMostly Cloudy
8:00 PM82.0 °F76.0 °F77 %29.83 in9.0 miCalmHaze
8:00 PM82.4 °F75.2 °F79 %29.83 in6.2 miCalmMostly Cloudy
9:00 PM82.4 °F75.2 °F79 %29.86 in6.2 miCalmMostly Cloudy
10:00 PM82.4 °F77.0 °F84 %29.86 in6.2 miCalmMostly Cloudy
11:00 PM80.0 °F77.0 °F86 %29.87 in9.0 miENE (60°)2.2 mphHaze
11:00 PM80.6 °F77.0 °F89 %29.86 in6.2 miVariable1.2 mphMostly Cloudy
Hourly data recorded from RPLB, located miles away from Olongapo, Philippines







STORIES FROM OUR PARTNERS